Regional Weather Roundup
Issued by NWS

Home | Current Version | Previous Version | Text Only | Print | Product List | Glossary Off
Versions: 1 2 3 4 5 6 7 8 9 10 11 12 13 14 15 16 17 18 19 20 21 22 23 24 25 26 27 28 29 30 31 32 33 34 35 36 37 38 39 40 41 42 43 44 45 46 47 48 49 50

000
ASUS43 KLMK 160002
RWRKY
KENTUCKY REGIONAL WEATHER ROUNDUP
NATIONAL WEATHER SERVICE LOUISVILLE KY
700 PM EST FRI DEC 15 2017

NOTE "FAIR" INDICATES FEW OR NO CLOUDS BELOW 12,000 FEET
WITH NO SIGNIFICANT WEATHER AND/OR OBSTRUCTIONS TO VISIBILITY.

KYZ001>023-026-027-061>063-070>075-160100-
WESTERN AND SOUTH CENTRAL KENTUCKY

CITY           SKY/WX    TMP DP  RH WIND       PRES   REMARKS
PADUCAH        CLEAR     41  25  53 S5        30.12R
HENDERSON      CLOUDY    38  27  64 SW6       30.13R WCI  33
OWENSBORO      CLOUDY    38  26  62 SW7       30.13R WCI  33
HOPKINSVILLE   CLOUDY    40  23  51 S5        30.14S
BOWLING GREEN  CLOUDY    39  24  55 SW7       30.16R WCI  34
GLASGOW        NOT AVBL
$$

KYZ024-025-028>034-038-045-046-053-160100-
NORTH CENTRAL KENTUCKY

CITY           SKY/WX    TMP DP  RH WIND       PRES   REMARKS
LOUISVILLE/SDF CLOUDY    37  23  56 SW8       30.11R WCI  31
LOUISVILLE/LOU CLOUDY    36  24  62 SW9       30.12R WCI  29
FORT KNOX      CLOUDY    35  22  58 SW8       30.09S WCI  29
$$

KYZ035>037-039>044-047>052-055>060-089>105-160100-
NORTHEAST KENTUCKY

CITY           SKY/WX    TMP DP  RH WIND       PRES   REMARKS
LEXINGTON      CLOUDY    34  21  59 SW8       30.10R WCI  27
COVINGTON      CLOUDY    31  22  69 W6        30.06R WCI  25
FRANKFORT      CLOUDY    35  20  54 SW7       30.09R WCI  29
$$

KYZ054-064>069-076>088-106>120-160100-
SOUTHEAST KENTUCKY

CITY           SKY/WX    TMP DP  RH WIND       PRES   REMARKS
JACKSON        CLOUDY    30  20  66 SW5       30.10R WCI  25
LONDON         CLOUDY    32  20  61 SW6       30.13R WCI  26
SOMERSET       NOT AVBL
MIDDLESBORO    PTCLDY    28  20  74 CALM      30.16R
MONTICELLO     CLOUDY    33  23  66 W12       30.17R WCI  24
$$





USA.gov is the U.S. government's official web portal to all federal, state and local government web resources and services.